Location: Unspecified
(0.0000°N, 0.0000°E)
Time: 23:51:40
(UTC+00:00)

Hubble Space Telescope - Pass Details

Date: 01 December 2022
Orbit: 530 x 534 km, 28.5° (Epoch: 02 December)

Event Time Altitude Azimuth Distance (km) Brightness Sun altitude
Exits shadow 04:45:09 11° 238° (WSW) 1,730 3.0 -14.8°
Maximum altitude 04:49:09 84° 151° (SSE) 532 0.7 -13.9°
Drops below altitude 10° 04:53:13 10° 62° (ENE) 1,759 4.0 -12.9°
Sets 04:55:28 0° 61° (ENE) 2,646 4.9 -12.4°
